GFSNIL_sfc_dewp_000.txt.gz
Dewpoint
43 41 41 39 37 35 34 34 34 33 34 34 34 35 35 34 34 34 35 34 35 34
42 40 38 37 36 35 34 29 34 34 34 34 35 35 34 34 33 33 34 34 35 34
37 37 35 35 33 32 32 32 33 32 32 32 32 32 32 32 32 33 33 32 33 33
34 35 32 31 30 30 32 31 31 30 30 29 28 29 29 29 30 29 29 30 30 30
32 31 31 30 31 33 31 32 31 30 28 27 26 27 27 27 26 26 26 27 27 28
31 30 30 32 32 31 31 30 29 27 28 27 27 26 26 25 25 25 25 26 26 26
30 32 32 32 32 32 31 30 29 28 27 27 25 23 23 22 23 24 24 27 28 28
36 35 33 32 32 31 31 28 28 25 25 26 24 21 23 25 25 25 25 26 26 26
36 33 32 32 31 31 29 27 25 25 25 25 21 27 30 30 26 25 25 25 25 25
36 30 30 29 28 28 26 26 25 24 24 24 24 29 30 29 25 25 25 25 24 24
30 27 27 28 26 25 24 24 23 24 24 24 24 28 28 28 26 26 26 26 26 26
26 26 27 25 23 24 23 22 23 23 24 24 24 27 27 27 27 28 28 27 27 27
26 25 22 22 22 22 22 20 23 23 26 27 25 27 28 29 29 29 28 29 30 31
23 21 21 22 21 20 20 24 25 25 26 25 26 26 28 28 28 29 28 28 27 27

GFSNIL_sfc_dewp_003.txt.gz
Dewpoint
41 40 37 38 37 34 33 34 32 33 33 32 32 32 32 31 33 34 34 34 35 36
40 37 35 32 32 34 33 31 32 32 31 32 34 34 33 35 34 34 34 35 35 35
32 30 32 33 31 30 31 30 31 32 34 35 33 32 32 32 32 33 34 33 34 34
31 29 28 28 29 29 30 28 31 32 33 32 30 30 30 30 31 31 31 31 30 30
28 26 26 27 29 31 30 31 30 31 30 30 30 30 30 29 28 28 27 29 29 29
26 25 27 29 28 28 29 30 29 29 31 31 30 29 29 27 27 26 27 27 27 27
27 27 29 29 29 29 30 29 30 30 31 31 28 25 25 24 25 25 25 27 28 28
34 33 31 31 29 30 30 30 30 29 27 27 26 22 24 25 26 25 25 26 26 26
37 35 33 30 31 31 29 28 26 25 26 25 22 28 32 29 27 26 25 25 25 25
39 38 37 32 28 27 25 24 23 23 23 24 25 30 29 29 24 24 24 24 24 23
39 36 27 27 26 23 22 21 21 22 23 24 23 29 29 28 26 25 25 25 25 25
27 25 25 23 21 21 20 19 21 22 23 24 25 28 28 27 26 25 25 26 27 27
25 23 21 20 19 19 19 19 22 23 26 27 24 26 26 25 26 27 26 26 27 28
23 21 20 20 20 18 19 22 19 18 21 23 24 24 25 25 25 27 26 25 26 26

GFSNIL_sfc_dewp_006.txt.gz
Dewpoint
41 42 41 39 39 37 36 35 34 34 35 36 37 37 37 38 38 37 33 31 31 32
35 36 33 32 34 34 33 32 34 37 39 41 42 41 36 35 34 34 34 33 33 33
30 31 32 31 30 32 34 37 39 41 41 41 38 36 34 34 32 32 33 32 33 33
28 29 28 29 30 30 32 34 36 36 35 35 35 34 32 30 31 31 31 31 31 30
28 27 28 29 30 31 30 31 30 31 31 31 31 31 30 30 29 28 27 28 28 27
26 26 28 28 29 29 29 29 29 28 30 31 31 30 29 28 27 27 26 26 27 27
26 27 29 29 29 29 29 29 28 30 31 32 30 28 27 26 26 26 25 26 27 27
33 32 31 30 30 32 31 30 30 30 28 27 26 22 28 27 26 25 25 26 26 25
37 37 37 37 37 34 31 29 25 24 24 24 22 30 30 29 26 25 24 24 23 23
40 39 37 36 34 28 25 22 21 21 21 23 24 28 29 29 24 25 25 24 24 23
37 35 30 26 24 21 21 19 19 20 22 23 23 28 27 28 25 25 25 25 25 25
26 25 24 21 20 20 19 19 19 21 23 25 25 27 26 25 23 24 25 27 27 27
25 23 21 20 20 19 18 18 23 24 24 24 23 25 24 24 25 25 24 24 25 26
24 22 21 19 18 18 20 21 17 16 19 21 23 22 25 25 25 25 25 24 24 25

GFSNIL_sfc_dewp_009.txt.gz
Dewpoint
37 39 41 41 39 38 35 34 35 37 39 41 41 42 42 42 41 40 39 38 35 32
33 34 35 33 34 34 34 35 38 40 41 41 41 41 41 40 39 38 36 35 34 33
32 31 31 32 32 32 35 38 40 41 40 41 41 40 39 36 34 32 33 32 32 32
32 29 28 30 31 32 35 35 35 34 36 37 36 35 33 31 31 30 30 30 30 29
32 28 27 29 30 31 31 31 31 31 31 32 31 31 30 29 29 28 27 27 28 27
30 26 28 29 30 31 29 29 29 29 29 30 31 30 29 29 28 27 27 27 27 27
26 26 28 29 30 32 32 30 30 30 31 31 28 26 26 26 26 26 25 26 26 25
31 32 31 35 37 36 34 33 31 28 26 25 23 21 26 26 26 25 25 25 25 24
40 40 40 39 38 36 35 29 25 23 23 23 21 28 30 29 27 26 24 23 23 23
39 40 39 37 36 28 24 22 21 21 22 23 24 27 28 28 25 25 24 24 24 24
29 27 26 24 22 21 20 19 19 20 23 24 24 26 26 26 24 24 24 25 25 25
28 27 23 21 20 20 18 19 20 23 24 23 22 24 24 24 21 22 23 25 25 25
24 22 21 21 19 19 19 20 23 23 22 22 21 23 25 24 24 24 23 23 23 25
25 23 22 20 19 19 21 21 17 15 18 20 22 22 25 25 25 24 24 24 24 26

GFSNIL_sfc_dewp_012.txt.gz
Dewpoint
35 35 35 35 36 37 35 35 38 39 40 40 40 41 42 42 41 40 38 37 37 38
35 34 33 33 34 34 35 38 39 39 39 40 41 41 41 40 38 38 38 37 37 37
35 35 33 32 33 33 35 38 39 38 37 37 37 39 40 40 39 37 36 35 34 33
36 36 32 30 31 34 35 37 35 34 34 35 36 36 35 33 32 31 30 30 29 29
37 33 29 28 30 31 30 31 30 31 31 31 30 31 31 30 29 28 27 27 27 27
32 27 27 29 30 32 32 32 31 30 30 31 32 31 29 27 27 26 27 27 27 26
29 27 29 32 36 36 35 34 34 32 31 29 26 25 24 25 26 26 25 26 25 25
35 35 37 37 37 37 36 37 33 27 25 25 23 20 27 26 26 25 25 26 24 23
40 39 38 38 38 37 37 37 30 23 23 23 22 28 29 30 28 27 25 23 23 23
34 32 31 33 32 26 23 22 21 21 22 23 24 26 26 26 24 25 25 24 23 23
30 30 28 23 21 21 20 19 20 21 24 24 21 24 24 24 24 23 23 23 23 23
25 23 23 22 21 20 19 20 21 23 23 21 21 23 24 24 22 22 22 24 24 25
25 24 22 20 19 19 20 21 23 21 21 21 20 23 25 24 23 23 24 24 23 25
25 23 21 20 20 20 20 22 17 15 18 19 21 21 25 24 24 25 24 25 24 25

GFSNIL_sfc_dewp_015.txt.gz
Dewpoint
42 40 39 38 39 37 36 38 41 41 41 42 43 42 42 41 40 39 38 37 37 37
41 41 39 40 39 36 38 39 41 42 42 42 42 41 40 40 38 38 38 38 38 37
40 40 40 38 36 36 38 41 41 41 38 37 37 38 38 39 39 38 37 36 36 35
40 39 34 33 34 36 39 38 35 32 33 34 34 34 34 34 33 34 33 33 32 30
37 32 31 32 33 34 32 33 33 35 35 34 32 32 32 31 30 28 27 27 27 26
32 30 31 36 37 37 36 36 36 35 35 33 29 25 25 24 24 25 25 26 27 26
34 33 37 39 38 38 38 37 36 36 35 33 27 22 23 23 25 26 25 27 26 25
39 39 39 37 35 35 34 34 37 34 25 24 22 20 26 25 25 25 25 25 23 24
33 32 32 33 34 35 32 26 23 22 23 23 20 27 27 26 22 22 22 22 21 21
32 32 30 27 24 24 24 23 22 22 23 24 23 23 24 24 21 22 22 21 20 19
27 24 24 24 23 23 22 22 21 22 23 21 19 23 23 24 24 25 23 22 22 22
25 24 23 23 22 22 21 22 22 22 21 20 21 22 24 25 26 25 24 23 23 23
24 24 23 22 22 22 22 21 21 20 21 22 24 23 24 24 24 25 23 24 24 25
24 24 23 22 22 21 21 23 25 26 26 24 23 24 23 22 25 24 24 24 23 26

GFSNIL_sfc_dewp_018.txt.gz
Dewpoint
41 41 40 38 38 38 37 38 41 42 43 42 41 42 41 41 41 40 40 38 39 38
43 42 40 40 39 37 39 37 41 41 40 40 39 39 38 38 36 39 39 38 37 36
42 40 39 37 37 37 38 40 40 40 37 36 36 37 38 36 36 37 37 35 35 34
39 38 36 35 35 37 39 37 36 33 34 37 39 39 38 36 34 32 33 32 31 30
37 36 35 34 35 36 35 35 34 35 36 38 37 36 33 31 29 28 27 27 28 27
37 36 35 36 37 36 36 36 37 39 39 35 35 34 32 29 27 27 26 26 25 25
38 39 39 40 38 37 36 35 35 34 34 32 27 23 23 24 25 25 24 26 26 25
37 36 37 35 33 32 32 30 29 27 26 25 24 18 25 23 23 23 23 24 22 24
32 31 32 31 30 27 25 24 24 24 24 24 20 25 25 25 21 21 20 21 21 21
32 29 27 25 23 23 24 24 24 24 24 24 24 24 24 24 21 21 22 22 21 18
27 26 23 21 21 23 24 24 23 24 24 23 21 23 23 24 24 24 24 22 21 21
27 23 20 21 22 23 23 23 23 23 23 23 23 25 23 24 25 24 24 22 23 23
25 21 21 23 23 24 23 22 23 24 25 25 25 24 23 23 24 25 25 25 24 26
23 21 23 24 24 24 23 25 29 30 28 27 26 24 23 22 24 25 23 23 24 25

GFSNIL_sfc_dewp_021.txt.gz
Dewpoint
44 41 41 40 40 38 36 37 39 41 42 42 43 44 43 42 41 41 39 37 37 36
42 42 41 41 38 36 38 36 39 41 43 42 41 40 39 39 39 40 39 37 37 35
41 41 39 37 37 37 37 38 41 41 41 38 38 39 39 38 38 38 40 40 39 39
37 38 36 35 35 36 37 35 35 36 36 39 38 39 38 38 36 36 35 35 35 35
35 36 35 35 37 39 36 37 38 40 41 40 38 36 35 34 34 33 32 31 31 30
34 37 38 38 40 38 37 36 35 37 39 36 35 30 27 25 25 25 25 25 25 25
36 35 35 37 35 33 32 30 28 27 26 27 25 23 23 23 24 24 23 24 25 24
33 32 32 32 31 29 28 25 23 23 23 24 23 19 24 24 23 23 22 23 21 23
31 31 32 30 29 26 23 22 23 23 23 24 19 26 25 24 22 21 21 21 22 22
30 29 29 25 21 21 23 23 23 23 23 23 23 24 24 25 23 21 22 23 22 20
29 28 26 22 20 22 23 23 23 24 23 24 22 26 25 25 23 23 23 22 22 21
28 27 24 20 22 23 23 23 23 23 25 25 25 28 26 25 24 24 23 21 23 24
26 25 23 22 23 23 23 22 22 26 25 26 26 28 25 25 25 25 24 24 22 25
29 28 23 23 23 22 23 26 30 32 30 27 30 27 25 25 26 24 26 24 25 26

GFSNIL_sfc_dewp_024.txt.gz
Dewpoint
47 45 43 43 40 39 39 39 41 44 44 44 44 43 42 42 42 41 41 39 39 38
45 45 43 41 41 40 40 37 41 42 43 41 40 41 41 40 39 40 41 41 40 39
41 41 41 40 40 39 40 39 39 40 40 40 41 40 40 39 39 40 39 39 39 39
39 39 39 39 40 41 40 39 38 40 41 41 40 39 38 37 36 35 35 35 34 34
38 40 39 38 37 39 40 39 38 37 39 39 39 38 37 34 33 33 32 31 30 29
36 37 36 37 38 38 37 35 34 32 32 31 31 30 28 26 27 26 25 25 25 26
36 36 35 36 37 36 34 32 29 28 28 29 26 24 25 25 26 25 23 25 25 24
35 34 35 35 35 34 32 28 27 26 28 28 25 21 26 25 25 24 23 23 23 23
34 34 34 34 34 32 28 27 27 27 27 27 21 27 26 25 24 24 23 22 22 24
35 32 32 31 29 26 27 27 27 27 27 27 27 27 26 26 24 24 23 23 22 22
34 32 31 31 28 27 27 27 26 27 27 27 25 30 28 27 25 23 23 23 21 21
31 29 31 29 27 26 27 27 27 26 27 27 26 29 30 30 25 25 23 22 22 23
29 28 30 31 29 27 27 26 29 29 29 29 27 30 30 28 27 24 24 23 23 25
36 37 36 35 29 27 27 27 30 30 29 28 28 28 28 27 26 25 23 22 22 24

GFSNIL_sfc_dewp_027.txt.gz
Dewpoint
42 43 41 39 38 38 37 37 39 41 41 39 40 41 41 42 42 40 39 38 39 40
41 41 38 37 37 38 39 37 39 39 39 39 39 39 41 40 38 38 38 38 38 40
36 37 38 38 39 39 39 38 37 40 40 40 40 40 38 38 38 37 36 37 36 37
38 38 38 37 37 38 38 39 38 38 40 39 39 39 38 37 37 36 34 34 34 33
38 37 35 35 35 36 36 38 36 34 33 37 38 37 37 36 32 28 26 26 26 26
33 35 32 34 35 36 35 34 32 30 28 29 29 28 27 27 27 25 25 25 25 24
32 34 33 34 34 34 33 31 27 27 28 29 27 26 26 25 25 25 25 26 25 24
33 35 34 34 34 34 31 28 26 26 27 27 26 23 24 24 24 24 24 25 23 23
35 34 35 34 33 33 27 24 25 25 26 26 23 28 27 26 24 24 24 23 22 23
36 37 37 37 35 28 24 24 24 25 27 27 25 28 27 27 25 24 23 22 22 20
36 37 37 36 33 27 25 23 24 26 27 26 25 30 31 30 26 25 24 23 23 21
35 35 36 34 33 32 27 26 27 29 28 27 27 30 31 30 26 26 25 25 23 22
36 36 35 34 33 33 28 28 29 28 28 29 26 29 29 27 24 21 23 23 22 23
35 36 36 35 32 28 26 28 26 25 26 26 27 25 26 26 24 23 23 21 21 22

GFSNIL_sfc_dewp_033.txt.gz
Dewpoint
40 39 38 37 37 37 37 37 37 39 39 38 39 39 38 37 37 37 35 35 35 35
40 38 38 37 37 37 37 37 37 38 38 38 38 38 37 37 36 35 35 34 34 34
35 38 37 38 38 38 37 37 37 37 38 38 38 37 37 35 35 34 33 34 31 28
36 37 37 37 37 37 36 36 37 37 35 36 37 36 36 34 34 30 26 25 24 24
36 37 37 36 36 35 35 35 37 35 32 29 31 30 28 28 26 24 23 24 24 24
31 32 34 35 35 35 36 36 36 36 35 32 29 27 27 26 25 24 24 24 24 24
33 33 33 34 35 35 36 36 37 37 34 32 29 27 25 24 23 23 24 25 25 24
35 34 34 34 35 36 37 37 37 37 35 29 27 23 23 23 24 24 24 25 24 24
35 35 35 36 35 36 36 37 37 30 27 28 24 29 29 28 26 25 25 24 24 24
35 34 34 35 35 35 35 36 30 31 29 27 26 29 30 30 29 26 26 25 24 23
32 34 34 34 33 30 31 34 35 31 28 25 26 29 29 27 24 23 23 22 22 22
32 34 33 33 33 34 35 34 28 27 25 25 24 25 25 24 22 22 20 21 21 20
31 32 32 32 32 35 32 28 27 25 25 24 22 23 22 21 20 15 20 20 19 21
29 29 30 33 32 35 30 26 24 23 24 23 22 21 20 20 19 19 20 19 20 21

GFSNIL_sfc_dewp_036.txt.gz
Dewpoint
40 38 37 36 37 37 36 36 36 37 39 38 38 38 38 37 37 36 35 34 34 34
39 38 37 37 36 37 37 37 37 37 37 38 37 38 38 37 37 36 35 34 34 33
35 36 37 37 36 37 37 37 36 37 37 37 38 38 38 37 36 35 35 34 31 27
34 36 37 37 37 37 37 36 36 36 36 36 34 36 36 35 33 33 28 25 25 25
32 34 35 36 36 36 35 35 35 35 34 32 32 32 30 29 28 25 24 24 24 24
32 32 32 32 34 34 34 35 35 35 35 36 36 33 30 27 26 24 24 24 25 25
32 33 33 33 33 34 35 35 35 36 37 36 33 29 27 24 23 24 25 25 25 25
34 34 34 34 35 35 35 36 37 38 37 33 28 24 23 24 25 25 25 25 25 25
34 34 33 34 34 34 34 34 37 30 29 27 24 28 30 31 29 28 26 24 24 24
33 32 33 34 34 32 30 32 32 31 29 27 27 30 30 28 24 23 22 21 20 19
30 31 33 32 32 31 33 35 35 31 26 25 26 29 27 26 23 21 21 19 19 19
30 31 31 30 31 32 34 33 28 26 25 23 22 23 23 22 21 21 19 19 19 19
29 28 28 29 33 32 33 32 26 24 25 23 21 22 21 21 20 14 20 21 20 21
28 28 29 31 32 33 31 28 25 23 24 22 22 20 21 21 20 20 21 20 20 21

GFSNIL_sfc_dewp_039.txt.gz
Dewpoint
43 42 41 40 40 40 39 39 41 41 41 41 41 41 41 41 42 40 40 39 37 36
42 42 41 41 41 40 41 39 40 41 40 40 41 41 41 40 38 37 38 39 38 37
37 37 39 40 40 40 40 39 39 39 39 39 40 40 38 37 36 36 37 36 35 32
36 37 38 37 37 37 37 36 36 37 37 38 37 35 34 34 32 32 32 29 28 28
35 35 34 34 34 37 36 37 37 37 37 36 36 35 36 36 30 28 27 26 26 26
34 33 33 34 35 35 34 34 35 37 37 37 37 36 34 30 28 26 25 26 27 26
34 34 34 35 35 34 35 34 35 38 38 38 36 34 29 26 26 27 27 28 27 26
35 35 34 33 35 34 35 35 35 37 37 33 29 25 26 27 29 28 26 25 23 23
35 33 32 34 34 34 34 32 33 31 30 29 26 31 31 29 25 23 19 18 17 16
32 31 32 32 32 33 34 33 33 34 34 29 28 30 28 26 21 19 17 16 15 15
30 31 31 30 30 33 33 34 35 33 28 26 26 26 25 23 21 19 17 16 16 16
30 30 29 29 31 31 31 33 32 29 26 24 21 23 22 21 22 20 19 18 18 18
30 29 29 30 30 31 32 31 32 27 25 23 23 21 21 21 24 24 21 19 17 19
30 29 29 29 30 32 32 31 31 27 26 24 23 22 20 21 25 23 21 19 18 18

GFSNIL_sfc_dewp_042.txt.gz
Dewpoint
39 38 37 38 39 38 38 39 41 41 40 38 37 38 39 39 39 39 38 38 35 32
42 40 39 40 41 40 40 36 34 34 33 33 35 37 39 39 38 37 37 37 35 30
38 38 40 41 39 35 32 30 31 32 32 32 34 35 37 36 34 34 35 31 31 29
37 36 37 33 30 30 31 30 30 31 33 33 33 35 37 36 34 35 34 31 30 29
32 31 30 28 29 32 31 32 31 31 32 33 34 37 37 37 37 33 29 29 28 27
29 28 28 29 32 32 32 31 32 32 33 33 35 34 36 36 31 29 28 28 28 28
28 30 31 32 32 33 32 33 32 33 33 36 35 32 31 28 28 29 28 29 28 26
31 33 32 32 33 33 33 33 32 32 33 34 30 25 30 29 29 28 26 25 21 21
32 31 31 32 33 32 32 32 32 31 31 31 28 32 29 28 26 24 21 19 18 18
30 29 30 30 30 31 32 32 32 32 33 32 31 28 27 25 23 22 20 18 17 15
28 28 29 30 30 31 31 32 33 33 31 30 27 25 23 23 23 22 21 19 19 19
28 28 28 29 30 31 31 31 32 31 31 29 27 23 21 22 24 23 22 20 19 19
28 28 28 29 29 30 30 29 30 31 30 26 27 23 21 22 25 28 24 21 19 21
27 28 29 28 28 28 29 30 30 31 30 28 28 26 22 21 25 25 23 21 19 19

GFSNIL_sfc_dewp_045.txt.gz
Dewpoint
42 39 38 36 37 37 37 37 39 39 37 34 33 33 36 36 37 39 41 39 37 34
41 38 37 38 39 38 39 35 33 33 32 32 32 33 34 35 36 38 38 37 37 36
37 37 38 39 38 36 33 31 30 31 31 31 32 33 33 33 34 37 35 33 35 33
38 36 37 35 31 30 31 30 30 30 30 30 31 31 33 35 34 36 33 35 33 32
36 34 32 29 28 31 31 32 31 30 30 30 30 31 34 35 33 34 33 31 31 29
31 30 28 27 30 30 31 31 31 31 32 31 33 34 35 33 33 33 30 30 29 28
28 28 28 30 31 31 31 31 31 32 31 33 34 32 32 32 30 30 30 30 28 24
26 30 31 31 31 31 32 31 31 31 30 31 30 27 30 30 30 29 27 24 21 22
26 28 30 30 31 31 30 31 31 31 31 31 29 31 29 27 27 24 22 21 21 19
27 27 28 27 28 29 30 31 31 31 31 31 32 29 27 25 24 23 23 22 21 18
25 26 27 27 28 29 30 31 32 32 32 31 31 28 24 23 24 24 23 23 21 20
24 25 26 27 28 29 30 31 31 30 32 31 31 26 23 22 24 24 24 22 21 20
25 26 26 28 29 29 29 28 30 30 30 32 31 27 24 22 26 27 25 23 21 23
25 25 27 28 28 28 28 29 33 32 31 31 31 30 25 23 25 26 24 23 21 21

GFSNIL_sfc_dewp_048.txt.gz
Dewpoint
49 46 43 41 42 42 41 42 42 40 38 37 37 37 37 37 38 37 39 38 39 38
45 42 41 41 42 42 42 36 38 36 36 36 36 37 37 36 37 38 38 37 36 36
43 41 43 41 41 39 36 35 35 35 35 35 35 35 36 36 37 36 37 36 35 35
40 42 39 40 36 33 33 34 34 34 34 34 34 34 34 36 35 34 34 35 35 34
42 41 38 36 32 33 33 35 34 34 34 34 34 35 36 35 35 35 35 34 32 31
41 36 34 32 32 34 34 34 34 34 35 34 35 34 34 34 34 35 32 31 31 30
35 33 32 33 34 35 35 35 34 35 34 34 32 31 32 33 32 32 31 31 31 26
33 33 34 35 35 35 36 34 34 34 34 34 31 28 30 30 30 29 28 28 25 23
30 31 34 34 35 35 34 33 34 33 33 33 29 31 29 27 26 26 25 24 23 22
29 31 33 31 31 32 33 34 34 33 33 33 33 31 27 25 24 25 25 24 23 21
28 30 31 31 31 32 33 33 33 32 33 33 32 32 28 24 23 25 25 25 23 22
28 28 29 29 31 32 33 32 31 31 32 32 32 31 28 24 25 26 25 25 24 23
28 28 28 30 31 32 31 30 30 31 33 32 32 33 29 26 27 26 26 25 23 23
28 27 29 30 31 31 31 30 30 31 31 31 32 33 31 27 26 26 26 25 24 24

GFSNIL_sfc_dewp_054.txt.gz
Dewpoint
45 45 44 43 42 42 42 39 36 35 35 34 35 34 33 33 34 35 35 34 34 35
42 41 42 43 41 40 39 35 36 34 34 34 33 33 33 34 34 34 33 33 34 34
41 41 43 44 43 39 39 36 36 34 33 33 33 34 36 35 34 33 34 34 34 33
42 42 42 42 39 36 37 35 34 34 32 33 33 36 34 33 34 34 34 34 33 33
42 44 43 40 38 38 35 36 35 33 32 33 33 35 33 32 32 33 33 33 31 31
41 43 42 40 38 38 34 33 32 32 33 33 34 32 32 33 34 33 32 31 31 31
43 43 38 36 35 34 34 32 32 33 34 35 32 31 31 31 30 30 29 28 27 26
36 35 36 36 34 34 33 32 34 34 34 33 31 29 30 29 28 27 26 26 25 24
35 35 35 34 33 32 33 33 33 33 34 32 29 32 32 29 26 25 24 23 25 24
36 34 33 31 31 31 31 31 31 33 32 32 32 33 33 31 24 23 23 23 24 22
32 32 33 34 32 31 31 31 32 32 32 31 31 33 34 33 25 23 23 24 25 23
35 36 34 31 31 31 30 31 31 31 31 30 30 32 34 32 25 23 24 26 26 25
36 32 31 31 31 30 30 30 29 29 30 31 30 32 34 33 26 27 28 27 25 26
32 31 31 29 29 29 29 29 28 29 29 29 30 29 32 34 30 29 27 25 25 24

GFSNIL_sfc_dewp_057.txt.gz
Dewpoint
49 48 47 47 45 42 41 38 39 42 38 37 36 34 34 33 33 35 34 33 33 34
48 45 43 43 42 40 41 43 43 37 37 36 34 34 34 34 34 34 33 32 33 33
43 42 42 42 41 42 42 42 39 37 38 34 34 34 35 35 34 33 33 33 33 33
42 42 42 40 42 43 42 40 40 40 38 35 33 35 34 33 33 32 33 33 33 33
42 43 44 43 41 42 42 42 39 38 34 33 33 35 33 32 31 32 32 33 32 31
46 45 42 40 41 40 40 39 35 33 33 33 33 33 31 31 32 33 33 32 31 31
44 44 43 41 39 38 36 34 33 34 33 34 33 31 31 32 31 30 30 30 27 26
44 43 38 35 35 35 35 33 33 34 34 33 32 30 30 29 29 28 27 27 25 25
37 36 37 37 35 34 33 33 34 32 33 32 30 32 33 31 28 27 26 24 23 24
37 35 34 32 34 34 34 33 31 32 32 32 31 33 34 33 29 26 25 23 23 24
34 34 37 39 39 35 32 30 30 31 32 31 31 33 34 34 30 26 24 23 24 25
39 39 39 36 32 31 30 29 30 31 31 30 30 32 33 33 29 27 25 24 25 27
38 36 32 31 31 30 29 29 29 29 29 30 29 31 33 33 28 27 27 27 28 30
32 31 30 28 28 28 28 28 28 28 28 28 29 29 33 33 29 29 29 28 27 26

GFSNIL_sfc_dewp_060.txt.gz
Dewpoint
54 49 47 47 47 43 41 39 40 43 42 41 40 37 36 36 34 35 34 33 33 33
52 50 47 45 43 41 40 42 43 40 40 41 38 37 38 34 33 34 33 32 32 33
50 47 45 44 42 40 43 43 41 42 41 39 38 37 35 34 34 33 33 33 33 33
44 43 43 42 42 43 43 42 43 40 41 38 37 34 35 34 34 33 33 33 33 33
42 42 43 43 44 44 42 44 41 42 39 37 35 34 34 33 32 32 31 32 33 32
44 43 43 44 43 43 43 42 40 39 38 36 34 33 34 33 32 32 33 33 32 31
45 44 43 43 42 41 40 39 38 37 36 35 34 33 33 32 32 32 31 31 31 29
46 45 43 39 40 41 40 37 35 35 35 34 33 32 32 31 30 29 28 28 27 27
43 40 39 39 39 37 34 34 36 35 34 34 32 33 34 31 29 28 28 27 26 25
38 36 36 35 36 38 39 38 36 34 33 32 32 33 34 34 30 28 28 26 25 23
34 37 39 39 40 40 37 33 31 31 30 31 31 33 34 34 32 30 28 26 25 24
39 38 38 39 38 33 30 30 29 29 29 30 30 33 33 33 30 30 29 28 26 25
39 40 35 32 31 30 28 28 29 28 28 30 29 31 33 33 30 29 29 28 27 29
32 30 29 28 27 27 27 27 27 28 28 28 29 29 32 33 31 30 29 28 29 28

GFSNIL_sfc_dewp_063.txt.gz
Dewpoint
55 55 53 50 50 49 46 44 44 43 42 43 43 41 41 38 39 38 38 39 39 36
57 56 53 51 51 49 47 44 43 43 44 43 43 41 40 39 38 38 39 39 38 36
57 56 54 52 50 48 45 43 44 43 43 44 41 41 40 37 37 37 37 36 37 35
57 55 52 51 49 46 45 44 42 44 44 41 41 39 38 37 37 36 36 36 35 35
53 50 49 47 45 46 44 45 45 42 41 41 39 39 37 36 35 36 35 35 35 34
47 46 46 46 46 46 44 44 43 42 40 41 41 37 36 36 36 35 34 34 34 32
46 46 46 46 45 45 44 41 41 43 42 40 37 35 35 35 35 35 34 35 34 32
46 46 45 44 43 43 43 43 42 39 37 37 37 34 35 34 35 34 34 34 31 32
44 43 42 43 42 41 38 37 37 38 37 37 35 34 34 34 34 33 32 31 30 30
41 40 39 37 37 39 41 41 41 40 38 36 35 35 35 35 33 32 32 32 30 28
37 39 40 41 41 42 41 40 37 35 34 33 31 33 34 34 34 34 33 33 32 31
40 39 40 40 40 38 34 33 32 31 32 32 32 33 33 33 33 33 32 32 32 31
41 40 37 34 32 32 31 29 30 29 30 31 31 32 33 32 33 34 33 32 31 31
29 29 29 30 29 29 29 30 32 31 32 31 31 31 32 32 32 34 33 32 31 32

GFSNIL_sfc_dewp_066.txt.gz
Dewpoint
60 59 59 56 55 53 51 52 51 49 48 47 45 44 43 43 41 41 40 39 37 33
59 58 57 57 55 53 53 51 50 49 47 46 45 44 44 43 40 40 40 39 38 35
59 59 58 57 54 53 54 51 49 48 46 44 45 44 41 41 40 40 39 35 36 35
58 58 58 57 55 54 53 49 47 46 45 46 43 43 42 39 39 37 36 36 35 35
58 57 54 53 51 50 48 46 45 46 44 44 41 41 41 41 37 36 34 34 35 34
51 50 49 47 47 46 45 45 45 44 42 42 42 43 42 39 36 35 34 34 34 33
48 48 47 47 47 46 46 44 43 43 42 44 43 40 38 35 35 35 34 34 34 33
48 47 46 46 44 44 43 43 43 43 43 42 38 35 37 36 36 34 34 34 32 34
46 45 45 43 43 43 41 39 40 39 39 38 36 37 36 35 36 33 32 32 31 31
45 43 41 39 37 38 39 40 40 41 41 40 38 36 36 35 34 33 32 32 31 29
40 38 39 41 41 42 41 41 40 37 34 34 30 34 34 34 34 32 32 31 32 31
40 40 41 40 40 41 38 36 34 31 30 30 29 33 34 33 32 30 30 29 30 29
39 40 39 36 33 33 32 28 27 28 30 32 32 33 33 32 31 32 32 32 30 31
31 30 30 29 29 30 30 31 34 32 32 29 29 28 31 31 28 28 28 26 26 28

GFSNIL_sfc_dewp_072.txt.gz
Dewpoint
59 59 58 59 59 58 58 56 56 56 55 54 54 53 53 49 47 45 45 43 43 44
60 60 60 61 61 60 58 57 56 55 54 53 53 50 48 47 45 45 44 44 43 43
60 61 61 62 60 59 58 56 56 53 53 49 48 47 46 45 44 44 44 44 43 43
61 61 60 59 59 58 57 55 53 49 47 46 45 44 44 43 43 42 42 43 42 41
60 59 59 58 56 54 53 50 48 46 45 44 44 44 43 42 42 41 41 41 41 40
57 53 51 49 49 49 48 46 46 45 45 44 43 43 42 42 42 43 42 41 40 40
51 50 49 48 49 48 47 46 45 45 44 43 42 42 42 42 43 42 41 41 40 38
49 47 47 48 47 47 46 45 44 43 43 43 43 43 43 41 41 40 40 39 38 38
47 47 46 46 45 45 44 43 42 42 43 43 41 39 38 36 38 37 36 35 34 34
46 46 46 44 44 43 43 42 42 41 42 41 40 38 38 35 33 32 32 32 32 30
44 43 42 41 40 40 40 40 41 42 42 41 34 35 34 33 31 31 32 32 31 30
42 40 40 40 40 40 42 42 42 39 34 33 31 31 30 31 31 29 28 27 28 27
41 40 40 41 41 42 42 39 32 31 34 32 29 31 30 28 28 27 26 25 23 26
40 40 41 41 37 34 33 35 34 32 30 28 30 29 27 26 25 24 23 22 22 23

GFSNIL_sfc_dewp_075.txt.gz
Dewpoint
54 54 55 57 58 58 58 58 57 56 55 54 54 54 53 50 48 47 46 46 45 45
58 56 55 56 58 59 58 57 56 56 54 53 53 51 49 47 47 46 45 45 44 44
57 58 59 58 58 58 58 56 55 55 53 51 49 48 47 46 45 44 44 44 44 44
59 59 60 59 58 57 56 55 54 51 51 48 46 46 45 44 44 43 43 44 43 43
59 59 59 58 58 56 54 53 51 50 48 46 45 45 44 44 43 43 42 42 42 42
56 55 55 54 53 52 51 50 49 46 45 45 44 43 43 43 43 42 42 42 42 42
52 51 50 49 50 49 48 47 46 45 45 44 43 43 43 42 43 43 43 43 42 41
49 49 48 48 47 46 46 45 45 44 43 43 42 42 42 43 43 42 42 41 40 39
48 47 46 46 46 46 44 44 43 43 42 42 42 40 40 40 37 36 33 32 32 32
46 46 46 45 44 43 43 43 42 42 42 42 41 38 38 36 34 31 30 30 30 29
45 44 44 43 43 42 42 41 40 40 40 38 34 35 33 32 31 30 29 28 28 26
43 42 42 41 41 40 39 40 41 42 34 31 30 32 32 29 27 27 26 25 25 23
41 41 40 39 39 40 42 41 33 33 32 31 29 30 30 28 26 23 22 22 22 25
40 40 39 40 41 40 34 33 30 28 30 29 28 28 27 25 22 23 23 22 22 22

GFSNIL_sfc_dewp_078.txt.gz
Dewpoint
57 56 54 52 55 56 57 58 59 59 59 56 55 54 54 51 48 48 48 47 47 46
58 55 54 53 54 58 58 58 58 58 56 55 53 52 50 49 48 48 47 45 46 46
57 57 55 56 56 57 58 57 57 56 55 54 52 50 49 48 47 46 46 45 45 45
56 57 57 56 57 56 56 57 56 55 54 52 51 49 47 47 46 45 44 44 44 44
58 57 57 58 57 57 56 56 56 53 53 51 49 47 45 44 44 44 44 44 43 42
56 58 58 58 57 58 57 53 52 51 49 47 46 45 45 44 44 44 43 42 42 42
54 54 54 54 54 53 53 50 49 48 46 45 44 44 44 44 43 42 42 43 43 42
50 50 50 50 49 49 48 47 47 46 45 44 44 43 43 43 42 42 42 42 41 38
48 48 47 47 47 46 46 45 44 44 43 42 42 40 40 42 41 38 34 31 30 31
48 46 46 46 46 45 44 44 43 43 43 42 42 40 39 36 34 30 30 28 27 25
47 45 45 44 44 43 43 43 42 42 42 40 37 37 35 33 30 28 28 26 24 22
45 44 44 43 43 42 42 41 41 40 34 31 31 33 32 29 27 25 23 23 23 23
44 43 42 42 41 40 40 40 37 33 31 30 29 32 31 27 25 22 21 22 21 23
42 42 41 40 40 39 34 32 32 29 29 28 28 29 27 25 22 23 23 21 21 21

GFSNIL_sfc_dewp_081.txt.gz
Dewpoint
52 53 54 53 53 53 54 55 56 59 59 58 58 56 56 54 51 49 49 47 48 48
52 53 54 56 54 54 54 56 56 58 58 57 56 55 54 52 50 49 49 49 49 48
54 56 57 57 55 54 56 57 56 56 55 54 54 53 52 51 50 49 48 48 48 46
53 56 58 57 56 55 57 57 57 56 54 54 53 52 51 50 48 47 46 45 46 45
55 56 57 57 56 57 56 56 57 56 55 53 52 50 49 47 47 46 45 45 45 44
57 57 57 57 56 56 57 57 57 56 53 51 49 48 48 47 46 45 45 44 44 43
56 56 57 56 57 57 57 57 56 54 52 50 48 48 46 45 45 44 44 44 43 43
53 53 53 53 52 52 52 52 52 49 47 46 46 46 46 44 44 43 43 43 42 38
50 50 50 49 49 49 48 48 47 46 45 44 45 42 41 42 43 42 40 32 32 31
49 48 48 47 46 45 45 45 44 44 43 43 43 40 40 38 35 32 31 29 28 23
48 47 46 45 45 44 44 43 44 44 43 43 41 38 35 33 30 29 27 25 23 22
47 45 44 43 43 43 43 43 42 40 39 37 37 34 33 30 28 24 22 23 23 23
45 44 43 43 43 43 42 40 36 32 33 33 31 32 31 27 25 22 22 21 21 23
44 43 43 42 41 38 37 34 31 29 29 29 29 29 28 26 24 23 22 20 20 21

GFSNIL_sfc_dewp_084.txt.gz
Dewpoint
50 50 50 50 50 51 51 52 54 56 58 58 58 58 56 55 54 54 52 51 49 49
51 50 50 51 52 53 53 54 54 55 56 56 56 56 56 56 54 53 53 51 50 49
50 51 52 53 54 54 54 53 55 56 56 56 55 55 55 54 53 51 51 51 50 49
49 51 52 52 54 55 55 55 56 56 56 56 55 54 54 53 52 51 50 48 49 48
51 51 52 54 55 56 55 55 56 56 56 56 56 54 52 51 50 50 47 47 47 46
51 52 53 54 56 57 56 56 56 57 56 57 54 51 51 50 48 48 49 48 47 45
52 53 54 55 55 55 55 55 56 57 57 55 52 51 49 48 47 47 46 46 45 44
52 53 53 53 53 54 55 56 56 54 52 51 50 49 48 47 46 46 45 44 42 39
52 52 52 51 51 50 50 49 49 48 47 46 47 43 42 44 45 44 42 36 34 33
50 49 49 49 49 47 47 46 45 45 45 44 43 40 41 40 42 37 35 32 28 25
49 48 47 47 46 44 45 44 44 44 44 43 40 37 36 34 31 30 29 28 26 27
47 46 45 44 43 44 44 43 42 41 41 38 36 35 33 31 28 26 25 24 24 23
46 45 44 43 43 43 41 38 36 34 35 34 33 33 32 28 25 23 22 20 21 23
44 43 43 42 41 38 35 33 31 30 29 29 29 29 29 27 25 24 22 19 19 20

GFSNIL_sfc_dewp_087.txt.gz
Dewpoint
53 51 51 51 51 51 51 52 54 56 56 57 58 58 59 60 59 58 58 56 56 55
53 52 52 52 52 53 54 54 55 56 56 57 58 59 59 60 59 59 58 55 54 53
53 53 53 54 54 54 54 54 55 56 56 57 58 59 59 59 58 57 56 55 53 52
53 54 54 54 55 55 56 55 55 55 56 57 57 56 56 56 57 55 54 53 52 52
53 54 54 54 54 56 56 56 56 56 56 56 56 56 56 56 55 54 54 52 52 51
53 52 53 53 53 54 54 55 56 56 56 56 56 56 56 56 54 53 53 52 50 50
53 53 52 52 54 55 56 56 57 57 58 57 57 56 56 53 53 52 50 50 49 48
53 53 53 54 55 56 57 57 58 58 58 57 56 54 52 51 50 49 48 46 45 44
52 52 54 55 56 57 57 57 57 56 55 52 51 44 43 47 47 47 42 37 36 36
53 53 54 54 53 53 53 50 49 48 47 46 45 40 41 41 43 39 37 34 33 31
52 51 50 50 49 47 46 46 45 45 44 41 38 37 36 36 35 34 32 31 30 28
49 47 46 45 44 45 43 41 40 40 38 36 34 34 33 32 30 28 27 28 27 26
46 45 44 44 42 40 38 36 35 34 34 34 33 33 31 29 27 25 23 21 23 26
43 43 42 41 38 36 34 32 31 29 30 29 30 30 29 28 25 24 22 19 19 19

GFSNIL_sfc_dewp_090.txt.gz
Dewpoint
56 52 52 54 53 53 53 54 56 57 57 58 59 59 59 58 57 58 58 59 58 57
55 54 53 53 55 54 54 53 56 56 56 56 56 56 56 56 57 58 59 60 60 60
55 54 54 54 53 54 54 53 53 54 55 54 54 55 56 57 58 59 60 59 58 58
54 54 54 54 55 54 54 53 54 54 55 55 54 55 56 57 58 58 57 57 56 55
55 55 55 54 55 56 55 56 54 54 53 53 54 56 57 57 56 56 55 55 55 55
56 56 56 56 56 55 55 55 55 55 55 55 56 54 57 56 55 55 57 56 55 54
54 55 55 55 56 56 56 55 54 54 54 55 54 54 55 56 56 56 56 56 54 53
54 53 53 53 54 54 54 53 53 54 55 56 56 57 58 57 56 55 53 50 48 46
52 52 53 53 54 54 54 54 55 55 56 57 56 43 44 48 53 49 44 39 37 36
53 52 53 53 53 54 55 56 54 50 48 46 43 39 40 40 41 39 37 35 34 33
52 52 53 54 54 51 49 47 46 43 41 38 36 36 36 35 34 33 32 32 32 31
54 52 49 47 47 45 42 40 38 38 36 35 34 34 33 32 31 30 30 30 30 30
48 46 45 43 41 39 37 36 34 33 33 32 32 32 31 30 28 25 25 23 24 26
44 42 40 39 37 35 33 31 30 29 29 29 29 29 29 28 26 25 25 24 23 23

GFSNIL_sfc_dewp_096.txt.gz
Dewpoint
55 54 54 54 53 54 52 51 51 52 51 56 56 57 57 59 58 58 59 57 57 57
56 55 54 54 53 54 54 53 53 52 53 55 55 56 58 58 58 58 58 58 58 57
55 55 55 54 53 53 53 53 53 54 53 54 54 57 57 57 57 57 57 57 57 57
55 55 54 55 54 54 53 53 53 53 53 53 54 54 55 56 56 56 56 56 56 56
56 56 55 55 55 55 55 54 52 52 54 53 53 55 56 56 56 56 55 55 56 56
56 56 56 56 55 56 55 55 55 53 54 55 55 55 55 55 55 55 55 55 55 55
56 56 55 56 56 56 56 56 56 55 55 55 55 54 54 54 54 55 55 55 50 44
56 56 57 56 56 56 56 55 55 55 55 55 55 53 53 55 55 54 44 39 37 37
55 55 56 56 56 56 56 56 56 56 55 52 45 39 41 47 44 41 38 35 34 34
54 55 55 56 56 56 56 55 52 45 42 39 38 37 37 37 36 35 34 33 32 32
53 54 54 55 55 51 47 43 39 37 36 35 35 35 35 34 32 31 31 30 30 30
53 53 53 50 44 41 39 36 35 34 34 33 33 33 32 30 29 29 29 30 29 28
52 48 43 40 38 36 34 32 32 31 32 32 31 32 31 29 28 27 27 27 28 29
43 39 37 35 34 32 31 31 30 30 31 31 32 32 31 30 28 27 26 25 24 24

GFSNIL_sfc_dewp_099.txt.gz
Dewpoint
54 53 53 53 52 52 53 53 54 53 53 55 57 56 57 57 57 57 57 55 55 55
55 53 53 51 51 50 51 52 54 53 52 54 55 56 57 57 57 56 56 56 55 55
54 54 53 53 52 52 51 51 52 52 52 53 55 56 56 56 57 56 56 56 55 56
55 54 54 53 53 54 53 52 52 52 52 52 53 54 55 55 55 55 55 55 55 55
55 55 54 54 53 54 53 53 53 52 51 51 51 51 53 53 54 55 55 55 55 55
55 54 54 54 54 53 53 53 53 52 52 52 52 52 52 54 55 55 55 55 54 55
55 55 54 54 54 55 55 54 52 52 52 53 53 52 53 54 55 55 53 45 42 40
55 55 55 55 55 54 55 55 55 54 53 52 53 54 55 54 52 46 39 37 36 37
55 55 55 55 55 55 55 55 55 55 55 53 44 39 43 46 43 40 37 34 34 35
55 55 56 55 55 55 55 55 47 43 41 39 38 38 38 38 37 35 34 33 33 33
55 55 55 55 55 53 46 43 40 38 37 35 35 35 35 34 32 32 31 32 32 32
53 54 55 50 43 41 39 37 35 35 34 33 33 33 33 31 30 30 30 30 30 30
54 53 45 41 38 36 35 33 33 32 32 32 32 32 32 30 29 28 28 28 29 30
43 41 38 36 35 34 32 31 31 31 31 31 32 32 32 31 28 28 26 25 25 26

GFSNIL_sfc_dewp_102.txt.gz
Dewpoint
55 55 55 55 55 55 55 55 56 55 54 55 55 56 57 57 57 56 55 55 55 56
54 54 54 54 55 55 55 56 55 55 54 54 54 56 57 56 56 56 56 56 55 55
54 53 53 54 53 53 55 55 55 54 53 53 54 55 55 55 56 56 56 56 55 55
54 54 53 52 51 51 52 53 54 53 53 52 54 55 55 55 55 55 55 55 55 55
55 54 53 52 52 52 51 52 53 53 52 51 52 53 55 54 54 55 54 54 54 55
56 54 54 53 53 53 53 53 51 52 52 52 52 52 52 53 53 54 55 55 55 54
55 55 54 54 53 53 53 53 52 52 52 51 51 51 51 50 51 52 52 47 44 42
55 55 55 54 54 53 53 53 53 52 52 52 51 51 51 51 51 50 41 38 37 37
54 55 55 54 54 54 54 53 53 52 52 52 51 41 43 49 46 42 38 35 35 35
55 55 55 55 54 54 54 54 55 53 49 42 40 39 40 39 39 37 35 34 33 33
55 54 55 55 54 54 51 47 43 40 38 36 36 37 37 35 34 33 33 33 33 32
55 55 55 54 53 44 41 40 38 36 35 34 33 34 34 33 32 31 30 31 31 32
55 55 53 46 42 39 38 35 34 33 33 33 32 33 33 32 30 28 28 29 29 29
47 45 42 39 37 35 33 32 31 31 32 32 32 32 32 31 28 27 27 26 26 28

GFSNIL_sfc_dewp_105.txt.gz
Dewpoint
56 56 57 57 56 56 56 57 58 57 57 57 57 56 57 57 56 56 55 54 54 53
55 56 56 56 56 56 56 57 57 58 57 57 57 57 57 56 56 56 55 55 55 55
55 55 55 56 55 55 56 56 56 56 56 56 57 57 57 56 56 56 56 56 55 55
54 54 54 54 55 55 55 55 55 55 55 55 55 56 56 56 55 55 55 55 55 54
54 54 53 54 54 54 55 55 55 55 54 53 53 53 53 53 53 54 54 54 54 54
54 54 53 52 52 52 54 54 55 55 54 53 52 53 53 53 54 54 54 54 54 54
55 54 53 53 52 52 52 52 52 53 52 52 52 52 52 53 52 52 54 51 48 45
55 55 54 53 53 52 53 52 51 52 52 52 51 51 51 51 50 50 43 41 39 38
55 55 54 54 53 52 53 53 52 52 52 51 51 45 44 48 49 46 41 37 36 36
54 54 54 54 54 53 52 53 52 51 51 49 46 41 43 42 43 41 38 35 34 33
54 54 54 54 54 54 54 52 50 45 42 39 39 39 40 38 37 35 34 34 33 32
55 55 54 54 53 51 47 44 41 39 37 36 35 36 36 36 33 32 32 32 32 32
55 55 54 54 46 41 41 37 35 34 34 34 33 34 35 34 32 29 28 29 29 30
52 54 51 45 43 38 35 34 32 31 32 32 32 33 33 32 29 27 27 27 28 29

GFSNIL_sfc_dewp_108.txt.gz
Dewpoint
57 58 58 57 56 57 57 57 57 55 55 56 56 56 55 55 55 54 53 52 52 53
56 57 57 57 56 57 58 58 57 56 55 54 55 56 56 55 56 55 55 54 54 54
55 56 57 57 56 56 57 58 58 57 56 56 55 56 56 55 55 55 55 55 55 55
53 55 56 56 56 56 56 57 57 57 57 57 56 56 56 55 55 54 55 55 55 55
53 54 54 55 55 56 56 56 56 57 57 56 57 57 56 56 56 55 55 55 54 54
53 53 54 54 55 55 55 55 55 55 55 56 56 56 56 56 55 55 55 55 54 54
53 53 53 53 53 54 55 55 54 54 54 54 54 54 55 54 54 54 54 53 52 51
55 54 54 53 52 52 53 54 54 54 54 54 53 53 53 53 53 52 47 43 40 39
55 54 54 54 53 52 52 52 52 53 53 52 51 45 45 50 52 50 44 38 37 36
54 55 54 54 53 52 52 53 52 51 50 48 47 42 43 43 48 46 42 37 34 33
54 54 54 54 54 53 52 52 52 50 49 46 43 40 41 39 39 37 37 35 34 32
55 54 54 54 54 53 52 50 47 45 43 41 38 38 38 37 35 33 32 32 32 31
49 54 53 53 53 46 47 40 37 35 35 35 34 36 36 35 33 31 30 30 31 31
42 50 54 52 45 42 37 34 32 32 32 33 33 34 34 33 30 29 28 28 28 29

GFSNIL_sfc_dewp_111.txt.gz
Dewpoint
57 57 58 58 58 56 56 54 55 54 55 55 54 53 54 54 55 56 55 54 55 55
58 58 58 57 58 58 57 56 56 56 56 56 55 54 54 54 55 54 55 55 56 56
57 58 58 58 57 58 58 56 55 55 55 56 56 55 55 55 55 55 56 56 55 55
56 57 57 57 57 57 58 57 56 54 54 54 54 55 56 55 56 55 56 56 55 55
55 56 57 56 57 57 57 58 58 56 55 54 53 53 54 55 55 54 54 55 55 54
55 55 55 56 56 57 56 57 57 57 56 55 55 55 54 54 55 54 54 55 55 54
55 55 55 55 55 56 56 56 56 56 56 56 56 55 55 54 55 55 55 55 55 54
55 55 55 55 55 55 56 55 55 55 55 55 56 56 56 56 55 55 54 49 46 44
55 55 55 55 54 54 55 55 55 55 54 54 53 46 45 52 54 52 47 41 39 38
55 55 55 55 54 53 54 54 54 54 54 53 53 44 45 45 52 49 44 39 36 34
55 55 55 55 54 54 54 53 53 52 52 52 51 42 42 41 47 44 41 38 36 34
47 54 55 55 54 55 54 54 53 52 51 50 45 39 39 40 38 35 34 34 33 32
43 45 53 55 55 54 53 51 45 42 44 41 38 37 38 37 34 32 31 32 32 32
38 40 43 53 51 49 42 38 36 35 36 38 38 37 37 36 35 32 30 30 29 30

GFSNIL_sfc_dewp_114.txt.gz
Dewpoint
58 57 57 58 57 59 58 57 56 56 56 57 56 56 56 56 57 57 58 58 56 53
57 57 56 58 59 58 58 56 54 55 55 56 55 56 56 56 57 58 58 59 59 56
56 57 58 60 59 58 57 56 54 55 56 55 55 55 56 56 57 58 58 57 57 56
56 56 58 59 59 58 58 56 55 56 56 55 55 55 55 55 55 55 56 56 55 55
56 57 58 58 58 58 57 56 55 56 55 55 54 54 54 54 54 54 55 55 54 54
56 56 56 58 58 58 58 57 55 54 54 54 55 55 55 54 54 53 54 54 53 54
55 56 56 57 57 58 57 57 57 55 54 54 53 54 54 55 55 55 54 55 54 54
56 56 56 57 57 57 58 57 57 57 56 55 54 54 53 53 53 54 54 53 53 51
55 54 56 56 56 57 57 57 57 56 56 55 55 47 46 52 53 54 53 46 42 40
54 54 54 55 55 55 56 56 56 56 56 56 55 44 45 45 54 54 49 42 39 37
51 55 55 55 54 55 55 56 56 56 56 55 54 43 44 43 50 46 43 40 38 36
43 46 50 55 55 55 55 55 55 55 55 55 55 42 42 44 43 40 38 38 37 36
39 41 44 46 55 55 55 55 54 52 51 47 50 39 40 44 40 37 35 34 33 33
36 37 40 42 48 53 50 44 40 36 36 36 38 38 38 39 40 36 33 31 30 30

GFSNIL_sfc_dewp_117.txt.gz
Dewpoint
59 58 57 57 56 57 60 60 60 61 60 60 59 59 58 59 59 59 59 56 57 55
59 57 57 57 58 58 59 60 60 58 58 59 58 58 58 58 58 58 59 58 58 56
58 57 57 59 59 59 60 59 57 56 56 56 57 57 57 57 58 58 58 59 57 56
56 57 57 59 59 59 59 58 56 55 55 55 55 56 56 56 57 57 58 58 57 56
55 56 57 58 59 59 58 57 55 55 55 55 55 55 55 56 57 57 57 58 58 57
56 56 57 57 58 59 57 56 55 56 55 55 54 55 55 56 56 57 57 58 57 56
56 56 56 58 58 58 57 56 55 55 55 55 54 55 55 55 55 56 55 56 55 55
56 57 57 57 57 58 58 57 55 55 54 54 55 55 54 54 54 54 54 53 53 52
55 55 56 56 58 58 57 58 57 55 54 53 53 47 45 51 54 54 53 52 46 44
54 55 56 55 55 56 57 57 57 57 56 55 54 45 45 44 53 53 53 50 44 40
43 47 53 55 55 55 57 57 56 57 56 56 55 43 44 43 53 53 49 45 45 41
40 41 44 50 55 55 55 56 56 56 56 56 55 42 41 44 45 41 38 38 38 37
39 38 40 42 45 53 56 55 56 53 50 44 47 39 40 44 41 36 34 34 33 34
36 37 38 40 43 46 49 44 40 37 37 37 39 38 39 40 38 35 32 31 30 31

GFSNIL_sfc_dewp_120.txt.gz
Dewpoint
61 61 60 60 59 60 61 61 62 62 61 61 60 60 60 60 60 60 59 58 58 56
61 60 59 59 59 59 60 61 61 61 61 61 60 59 59 59 59 59 59 59 58 57
59 59 59 59 59 60 61 59 59 59 59 59 59 59 59 58 58 59 59 59 58 58
59 59 58 58 60 59 60 59 57 55 56 56 57 58 58 58 58 58 58 58 58 57
59 58 58 58 60 60 59 58 57 56 55 55 56 56 56 56 57 58 58 58 57 56
56 56 57 58 59 59 58 57 56 55 55 55 55 55 56 56 57 57 58 57 57 56
56 56 56 58 59 58 58 56 55 55 55 55 55 55 56 56 57 57 57 58 57 57
57 57 56 57 58 58 58 56 56 55 55 55 54 55 55 55 55 56 55 55 56 56
48 55 57 58 58 58 57 56 55 55 54 54 54 45 46 51 54 54 53 51 47 46
43 45 50 56 58 57 57 57 56 55 54 53 53 43 44 45 53 52 51 49 45 43
41 41 43 48 56 57 57 57 56 56 55 54 53 43 44 42 51 50 50 47 46 43
39 39 40 42 45 49 56 56 55 56 55 54 54 42 42 43 49 43 38 38 40 39
38 38 38 39 41 45 48 55 54 45 43 42 46 39 40 45 41 35 33 33 33 34
36 36 36 37 40 41 45 42 38 35 35 35 36 38 40 40 39 35 32 31 31 32

GFSNIL_sfc_dewp_123.txt.gz
Dewpoint
61 62 61 61 60 60 60 61 62 61 60 60 60 61 61 60 60 60 59 57 57 57
62 61 61 60 60 61 61 61 62 61 61 59 59 60 60 60 60 60 59 59 58 58
60 60 59 59 58 59 60 60 60 61 61 60 60 60 60 59 60 60 60 59 58 58
59 59 59 58 59 60 59 59 58 58 57 58 59 59 59 59 59 59 59 59 59 58
60 59 58 58 59 59 59 58 57 56 56 55 56 57 58 58 58 58 58 58 59 58
58 58 58 57 59 59 57 56 56 56 55 55 55 55 56 57 57 57 58 58 58 58
56 57 57 58 59 58 57 56 55 55 55 55 55 55 55 56 56 57 57 58 58 58
50 53 57 57 59 57 57 55 55 55 55 55 55 55 55 55 56 56 55 56 57 56
45 48 51 56 58 58 57 55 55 55 55 54 54 47 46 51 54 54 54 51 50 54
42 44 44 47 56 57 57 56 55 55 54 53 53 44 44 45 52 52 51 48 47 43
40 41 42 43 45 50 56 56 55 54 54 53 53 42 43 42 51 50 48 46 46 43
37 39 39 39 40 43 47 54 55 55 54 53 52 42 41 45 48 41 36 38 41 40
35 37 37 37 39 41 43 47 50 44 41 40 46 39 41 45 41 35 34 33 34 35
32 34 35 36 37 38 41 41 37 35 34 35 36 38 39 40 39 35 33 32 31 32

GFSNIL_sfc_dewp_126.txt.gz
Dewpoint
62 61 61 61 60 60 61 61 61 61 62 62 62 61 61 61 61 60 59 58 58 59
61 61 61 60 61 60 61 61 61 61 60 60 61 61 61 61 60 60 60 59 58 58
61 61 61 61 61 61 61 61 61 60 60 59 59 60 60 60 60 60 60 59 58 57
60 59 60 59 60 61 61 61 61 61 60 60 59 59 59 59 59 59 59 59 59 57
60 59 59 59 59 60 59 59 59 59 58 58 58 59 59 58 59 59 58 59 59 58
57 59 58 59 59 59 58 58 57 56 56 55 55 56 56 57 57 58 58 58 58 58
51 56 58 59 59 58 57 56 56 56 54 55 55 55 55 55 55 56 56 57 58 58
48 51 55 58 58 58 57 56 56 55 54 55 55 55 55 55 55 55 55 56 57 57
43 46 49 50 56 57 57 56 55 53 54 54 54 47 45 50 54 54 54 53 53 53
39 41 43 45 49 56 56 55 54 54 54 54 53 44 44 43 53 52 52 49 46 45
37 38 39 41 43 45 50 55 55 54 54 53 52 43 43 42 51 50 48 47 46 41
35 36 37 37 39 42 44 49 54 54 53 53 52 42 41 43 47 41 38 39 41 40
32 34 34 35 37 38 41 45 48 43 42 39 46 38 39 44 41 37 34 34 34 35
30 31 32 34 35 36 38 37 35 34 33 34 34 37 39 41 40 36 33 32 31 32

GFSNIL_sfc_dewp_129.txt.gz
Dewpoint
63 63 62 62 62 62 62 62 63 63 63 63 62 62 62 62 61 60 60 59 59 58
62 62 62 62 62 62 62 62 62 62 62 62 62 62 62 61 61 60 60 60 58 58
61 61 61 61 60 60 61 60 61 61 61 61 61 61 61 61 61 60 60 60 59 58
60 61 60 61 60 60 60 61 61 60 60 60 59 59 60 60 60 60 60 60 59 58
60 58 59 59 60 60 60 61 60 60 59 58 58 58 59 58 59 58 58 59 59 59
53 59 58 58 59 59 59 60 59 59 59 58 58 58 58 58 58 58 58 58 58 59
49 51 57 58 59 58 58 58 58 57 57 56 56 56 56 56 56 56 56 57 57 58
44 47 49 52 57 58 57 57 57 56 55 55 54 54 54 54 54 54 54 54 55 55
40 42 44 47 50 56 57 56 54 54 54 53 52 46 45 51 54 54 53 53 53 54
37 39 40 42 44 47 50 55 54 54 53 53 52 44 44 43 53 53 52 52 49 47
35 36 37 38 40 42 45 48 54 54 54 53 51 42 43 41 51 51 48 47 47 43
33 34 35 35 37 39 40 43 47 52 53 53 52 41 41 42 49 44 40 39 40 40
31 32 32 33 35 37 39 41 39 38 37 36 43 37 39 44 44 38 34 34 34 34
29 30 30 29 31 35 36 35 34 33 32 32 33 36 38 40 42 38 34 33 32 33